FW6564 Weather Reports


Display with metric or nautical units.
time (UTC)temp
F
wind
direction
speed
MPH
gust
MPH
rain 1hr
in
rain 24hr
in
rain mn
in
humidity
%
barometer
mb
20260507054026 62 210 2.0 7.0 0.00 0.01 0.00 80 1012.5
20260507053526 62 252 1.0 6.0 0.00 0.01 0.00 80 1012.5
20260507053042 62 232 1.0 7.0 0.00 0.01 0.00 81 1012.4
20260507052526 62 192 4.0 7.0 0.00 0.01 0.00 82 1012.3
20260507052026 62 0 2.0 8.0 0.00 0.01 0.00 83 1012.2
20260507051540 62 237 1.0 8.0 0.00 0.01 0.00 84 1012.3
20260507051025 61 209 3.0 8.0 0.00 0.01 0.00 84 1012.1
20260507050527 61 200 3.0 6.0 0.00 0.01 0.00 85 1012.1
20260507050046 61 208 2.0 6.0 0.00 0.01 0.00 86 1012.1
20260507045526 60 209 1.0 6.0 0.00 0.05 0.00 86 1012.1
20260507045026 60 221 1.0 3.0 0.00 0.05 0.00 87 1012.1
20260507044542 60 224 1.0 3.0 0.00 0.05 0.00 87 1012.1
20260507044025 60 225 0.0 3.0 0.00 0.05 0.00 87 1012.0
20260507043526 60 225 0.0 3.0 0.00 0.05 0.00 87 1012.0
20260507043041 60 0 1.0 4.0 0.00 0.05 0.00 87 1012.0
20260507042526 60 225 1.0 4.0 0.00 0.05 0.00 87 1012.0
20260507042025 60 225 2.0 4.0 0.00 0.05 0.00 88 1011.9
20260507041540 60 231 1.0 3.0 0.00 0.05 0.00 88 1011.9
20260507041026 60 234 0.0 3.0 0.00 0.05 0.00 88 1011.9
20260507040526 61 0 0.0 3.0 0.00 0.05 0.00 88 1011.8
20260507040043 61 235 2.0 3.0 0.00 0.05 0.00 88 1011.9
20260507035526 61 235 0.0 2.0 0.00 0.05 0.00 87 1011.8
20260507035026 61 235 1.0 2.0 0.00 0.05 0.00 87 1011.8
20260507034551 61 235 0.0 3.0 0.00 0.05 0.00 87 1011.8
20260507034026 61 0 1.0 3.0 0.00 0.05 0.00 87 1011.8
20260507033526 61 0 1.0 3.0 0.00 0.05 0.00 87 1011.8
20260507033046 61 0 0.0 0.0 0.00 0.05 0.00 87 1011.7
20260507032524 61 0 0.0 0.0 0.00 0.05 0.00 86 1011.7
20260507032025 61 0 0.0 0.0 0.00 0.05 0.00 86 1011.6
20260507031541 61 0 0.0 1.0 0.00 0.05 0.00 86 1011.6
20260507031026 61 0 0.0 1.0 0.00 0.05 0.00 86 1011.7
20260507030526 61 0 0.0 2.0 0.00 0.05 0.00 86 1011.6
20260507030043 61 0 0.0 2.0 0.00 0.05 0.00 85 1011.5
20260507025525 61 234 0.0 2.0 0.00 0.05 0.00 85 1011.5
20260507025028 61 0 0.0 1.0 0.00 0.05 0.00 85 1011.4
20260507024540 61 0 0.0 3.0 0.00 0.05 0.00 85 1011.4
20260507024025 61 0 0.0 4.0 0.00 0.05 0.00 85 1011.4
20260507023525 61 234 1.0 4.0 0.00 0.05 0.00 85 1011.4
20260507023046 61 232 0.0 3.0 0.00 0.05 0.00 84 1011.5
20260507022525 61 0 1.0 3.0 0.00 0.05 0.00 84 1011.4
20260507022025 62 232 1.0 4.0 0.00 0.05 0.00 84 1011.4
20260507021547 62 0 1.0 4.0 0.00 0.04 0.00 83 1011.4
20260507021026 62 226 2.0 4.0 0.00 0.04 0.00 83 1011.3
20260507020525 62 229 1.0 3.0 0.00 0.04 0.00 82 1011.4
20260507020104 62 228 0.0 3.0 0.00 0.04 0.00 82 1011.4
20260507015526 62 229 1.0 3.0 0.00 0.04 0.00 82 1011.6
20260507015026 62 232 0.0 5.0 0.00 0.04 0.00 81 1011.7
20260507014546 62 232 1.0 5.0 0.00 0.04 0.00 81 1011.7
20260507014026 63 0 2.0 6.0 0.00 0.04 0.00 80 1011.6
20260507013526 63 254 1.0 6.0 0.00 0.04 0.00 80 1011.7
20260507013052 63 257 2.0 6.0 0.00 0.04 0.00 79 1011.6
20260507012526 63 276 2.0 10.0 0.00 0.04 0.00 79 1011.7
20260507012026 63 276 3.0 10.0 0.00 0.04 0.00 79 1011.5
20260507011541 63 247 3.0 9.0 0.00 0.04 0.00 79 1011.5
20260507011025 63 245 4.0 10.0 0.00 0.04 0.00 79 1011.4
20260507010526 63 281 4.0 10.0 0.00 0.04 0.00 79 1011.5
20260507010040 63 284 2.0 8.0 0.00 0.04 0.00 79 1011.4
20260507005525 63 263 2.0 7.0 0.00 0.04 0.00 79 1011.5
20260507005025 63 291 1.0 7.0 0.00 0.04 0.00 78 1011.4
20260507004548 63 286 1.0 3.0 0.00 0.04 0.00 78 1011.4
20260507004025 63 286 1.0 3.0 0.00 0.04 0.00 77 1011.4
20260507003525 63 286 0.0 3.0 0.00 0.04 0.00 77 1011.3
20260507003048 63 0 0.0 2.0 0.00 0.04 0.00 77 1011.3
20260507002526 63 0 0.0 2.0 0.00 0.04 0.00 77 1011.3
20260507002026 63 0 1.0 2.0 0.00 0.04 0.00 77 1011.5
20260507001546 63 0 1.0 3.0 0.00 0.04 0.00 77 1011.5
20260507001026 63 0 1.0 3.0 0.00 0.04 0.00 77 1011.6
20260507000526 63 0 0.0 2.0 0.00 0.04 0.00 76 1011.6
20260507000042 63 286 0.0 2.0 0.00 0.04 0.00 76 1011.7
20260506235528 63 0 1.0 3.0 0.00 0.04 0.00 76 1011.7
20260506235025 64 0 1.0 3.0 0.00 0.04 0.00 76 1011.5
20260506234544 64 281 0.0 2.0 0.00 0.04 0.00 75 1011.6
20260506234025 64 281 1.0 3.0 0.00 0.04 0.00 75 1011.5
20260506233527 64 281 1.0 3.0 0.00 0.04 0.00 75 1011.6
20260506233102 64 281 1.0 3.0 0.00 0.04 0.00 74 1011.5
20260506232526 65 0 0.0 3.0 0.00 0.04 0.00 74 1011.5
20260506232026 65 0 0.0 4.0 0.00 0.04 0.00 74 1011.5
20260506231538 65 0 0.0 4.0 0.00 0.04 0.00 74 1011.5
20260506231026 65 283 1.0 4.0 0.00 0.04 0.00 74 1011.6
20260506230526 65 282 1.0 7.0 0.00 0.04 0.00 74 1011.6
20260506230049 65 0 0.0 7.0 0.00 0.04 0.00 74 1011.6
20260506225526 65 264 2.0 8.0 0.00 0.14 0.00 74 1011.6
20260506225027 65 0 2.0 8.0 0.00 0.14 0.00 74 1011.4
20260506224543 65 204 0.0 5.0 0.00 0.14 0.00 74 1011.5
20260506224029 65 0 1.0 5.0 0.00 0.14 0.00 74 1011.6
20260506223525 65 204 0.0 5.0 0.00 0.14 0.00 73 1011.5
20260506223045 65 204 1.0 5.0 0.00 0.14 0.00 74 1011.5
20260506222527 65 298 2.0 7.0 0.00 0.14 0.00 73 1011.5
20260506222028 65 296 1.0 8.0 0.00 0.14 0.00 73 1011.5
20260506221543 65 251 2.0 8.0 0.00 0.14 0.00 72 1011.5
20260506221026 65 246 2.0 11.0 0.00 0.14 0.00 72 1011.5
20260506220526 65 276 4.0 11.0 0.00 0.14 0.00 72 1011.4
20260506220042 66 307 5.0 10.0 0.00 0.14 0.00 71 1011.3
20260506215526 66 296 4.0 8.0 0.00 0.18 0.14 71 1011.3
20260506215029 66 275 1.0 6.0 0.00 0.18 0.14 71 1011.4
20260506214542 66 304 2.0 8.0 0.00 0.18 0.14 71 1011.5
20260506214025 66 254 2.0 8.0 0.00 0.18 0.14 70 1011.5
20260506213528 66 328 2.0 8.0 0.00 0.18 0.14 70 1011.5
20260506213058 66 234 2.0 8.0 0.00 0.18 0.14 70 1011.5
20260506212526 66 244 2.0 8.0 0.00 0.18 0.14 70 1011.5
20260506212026 66 231 3.0 8.0 0.00 0.18 0.14 70 1011.6
20260506211543 66 250 1.0 8.0 0.00 0.18 0.14 70 1011.5
20260506211026 66 244 2.0 7.0 0.00 0.18 0.14 69 1011.6
20260506210527 66 246 2.0 7.0 0.00 0.18 0.14 69 1011.7
20260506210043 66 201 2.0 9.0 0.00 0.18 0.14 69 1011.7
20260506205528 66 200 2.0 9.0 0.00 0.18 0.14 68 1011.5
20260506205026 66 240 4.0 9.0 0.00 0.18 0.14 68 1011.5
20260506204542 67 234 3.0 10.0 0.00 0.18 0.14 68 1011.5
20260506204027 67 257 3.0 10.0 0.00 0.18 0.14 68 1011.4
20260506203526 67 236 3.0 9.0 0.00 0.18 0.14 68 1011.5
20260506203040 67 263 4.0 11.0 0.00 0.18 0.14 67 1011.3
20260506202526 67 206 2.0 12.0 0.00 0.18 0.14 67 1011.3
20260506202026 67 250 5.0 12.0 0.00 0.18 0.14 67 1011.3
20260506201542 67 254 3.0 11.0 0.00 0.18 0.14 66 1011.2
20260506201027 67 219 5.0 16.0 0.00 0.18 0.14 66 1011.2
20260506200526 68 182 5.0 16.0 0.00 0.18 0.14 66 1011.1
20260506200048 68 259 6.0 15.0 0.00 0.18 0.14 65 1011.2
20260506195526 68 197 6.0 15.0 0.00 0.25 0.14 65 1011.1
20260506195026 68 151 8.0 15.0 0.00 0.25 0.14 65 1011.1
20260506194547 68 160 8.0 15.0 0.00 0.25 0.14 65 1011.1
20260506194027 68 215 5.0 12.0 0.00 0.25 0.14 65 1011.1
20260506193530 68 212 4.0 14.0 0.00 0.25 0.14 65 1011.1
20260506193043 68 206 3.0 14.0 0.00 0.25 0.14 65 1011.1
20260506192526 68 215 5.0 14.0 0.00 0.25 0.14 65 1011.0
20260506192026 68 189 4.0 13.0 0.00 0.25 0.14 65 1010.8
20260506191543 68 140 4.0 13.0 0.00 0.25 0.14 65 1010.7
20260506191026 68 153 4.0 14.0 0.00 0.25 0.14 64 1010.7
20260506190526 68 154 5.0 14.0 0.00 0.25 0.14 64 1010.6
20260506190043 68 209 5.0 15.0 0.00 0.25 0.14 64 1010.6
20260506185530 68 155 5.0 16.0 0.00 0.26 0.14 65 1010.6
20260506185026 68 217 7.0 16.0 0.00 0.26 0.14 65 1010.4
20260506184549 68 160 5.0 11.0 0.00 0.26 0.14 65 1010.2
20260506184026 68 192 4.0 11.0 0.00 0.26 0.14 65 1010.2
20260506183528 68 135 4.0 15.0 0.00 0.26 0.14 65 1010.2
20260506183053 68 192 4.0 15.0 0.00 0.26 0.14 65 1010.1
20260506182526 68 188 5.0 18.0 0.00 0.26 0.14 66 1010.0
20260506182026 68 184 5.0 18.0 0.00 0.26 0.14 66 1009.9
20260506181609 68 158 6.0 18.0 0.00 0.26 0.14 66 1010.1
20260506181030 68 223 5.0 16.0 0.00 0.26 0.14 66 1009.9
20260506180526 69 227 6.0 16.0 0.00 0.26 0.14 66 1009.8
20260506180044 69 171 5.0 15.0 0.00 0.26 0.14 66 1009.8
20260506175525 69 192 5.0 16.0 0.00 0.29 0.14 65 1009.8
20260506175026 69 180 7.0 16.0 0.00 0.29 0.14 65 1009.8
20260506174542 69 211 5.0 12.0 0.00 0.29 0.14 65 1009.7
20260506174027 69 188 5.0 14.0 0.00 0.29 0.14 64 1009.6
20260506173531 69 179 5.0 16.0 0.00 0.29 0.14 64 1009.7
20260506173055 69 161 5.0 16.0 0.00 0.29 0.14 64 1009.6
20260506172526 69 210 6.0 15.0 0.00 0.29 0.14 63 1009.4
20260506172026 70 192 5.0 13.0 0.00 0.29 0.14 63 1009.5
20260506171546 70 188 6.0 18.0 0.00 0.29 0.14 63 1009.4
20260506171027 70 163 5.0 18.0 0.00 0.29 0.14 62 1009.5
20260506170526 70 184 6.0 16.0 0.00 0.29 0.14 62 1009.4
20260506170047 70 181 8.0 18.0 0.00 0.29 0.14 62 1009.6
20260506165526 71 125 9.0 18.0 0.00 0.29 0.14 61 1009.5
20260506165030 71 162 2.0 10.0 0.00 0.29 0.14 61 1009.5
20260506164544 71 177 4.0 9.0 0.00 0.29 0.14 60 1009.5
20260506164026 72 144 5.0 9.0 0.00 0.29 0.14 59 1009.6
20260506163527 72 176 3.0 9.0 0.00 0.29 0.14 59 1009.6
20260506163043 72 189 2.0 9.0 0.00 0.29 0.14 59 1009.5
20260506162526 72 140 5.0 13.0 0.00 0.29 0.14 59 1009.4
20260506162028 72 200 7.0 14.0 0.00 0.29 0.14 58 1009.5
20260506161539 73 165 5.0 16.0 0.00 0.29 0.14 57 1009.6
20260506161023 73 221 7.0 21.0 0.00 0.29 0.14 57 1009.6
20260506160523 73 246 7.0 21.0 0.00 0.29 0.14 57 1009.8
20260506160048 73 152 8.0 16.0 0.00 0.29 0.14 56 1009.7
20260506155525 73 209 6.0 17.0 0.00 0.29 0.14 57 1009.7
20260506155027 73 171 9.0 17.0 0.00 0.29 0.14 57 1009.8
20260506154546 73 206 4.0 11.0 0.00 0.29 0.14 58 1009.8
20260506154027 73 184 4.0 18.0 0.00 0.29 0.14 58 1009.8
20260506153527 73 181 5.0 18.0 0.00 0.29 0.14 57 1009.7
20260506153106 73 202 6.0 16.0 0.00 0.29 0.14 57 1009.8
20260506152527 73 191 4.0 13.0 0.00 0.29 0.14 58 1009.7
20260506152027 72 223 5.0 19.0 0.00 0.29 0.14 58 1009.6
20260506151544 73 205 9.0 19.0 0.00 0.29 0.14 57 1009.7
20260506151026 73 208 6.0 16.0 0.00 0.29 0.14 56 1009.7
20260506150527 74 166 6.0 15.0 0.00 0.29 0.14 55 1009.7
20260506150049 74 202 5.0 15.0 0.00 0.29 0.14 56 1009.6
20260506145527 74 265 5.0 19.0 0.00 0.29 0.14 57 1009.6
20260506145027 73 182 8.0 19.0 0.00 0.29 0.14 56 1009.5
20260506144549 73 199 5.0 14.0 0.00 0.29 0.14 57 1009.4
20260506144026 73 209 7.0 14.0 0.00 0.29 0.14 57 1009.5
20260506143526 73 209 6.0 12.0 0.00 0.29 0.14 56 1009.5
20260506143040 73 169 2.0 9.0 0.00 0.29 0.14 59 1009.5
20260506142523 73 198 3.0 8.0 0.00 0.29 0.14 58 1009.4
20260506142029 73 184 3.0 7.0 0.00 0.29 0.14 58 1009.5
20260506141542 73 315 3.0 7.0 0.00 0.29 0.14 58 1009.6
20260506141027 73 269 1.0 8.0 0.00 0.29 0.14 58 1009.6
20260506140527 73 194 3.0 12.0 0.00 0.29 0.14 57 1009.8
20260506140043 73 234 1.0 12.0 0.00 0.29 0.14 57 1009.7
20260506135526 73 191 6.0 12.0 0.00 0.29 0.14 56 1009.8
20260506135026 74 206 4.0 14.0 0.00 0.29 0.14 56 1010.0
20260506134539 74 212 6.0 14.0 0.00 0.29 0.14 56 1009.9
20260506134027 74 169 3.0 12.0 0.00 0.29 0.14 56 1009.9
20260506133527 74 188 4.0 12.0 0.00 0.29 0.14 56 1009.9
20260506133039 74 153 5.0 11.0 0.00 0.29 0.14 55 1010.1
20260506132528 74 96 5.0 12.0 0.00 0.29 0.14 55 1010.1
20260506132026 74 200 5.0 14.0 0.00 0.29 0.14 55 1010.2
20260506131546 74 206 5.0 14.0 0.00 0.29 0.14 54 1010.2
20260506131026 74 198 7.0 13.0 0.00 0.29 0.14 55 1010.1
20260506130527 73 155 2.0 12.0 0.00 0.29 0.14 58 1010.3
20260506130040 73 184 5.0 12.0 0.00 0.29 0.14 57 1010.3
20260506125526 72 202 3.0 11.0 0.00 0.29 0.14 60 1010.4
20260506125023 71 157 6.0 12.0 0.00 0.29 0.14 61 1010.4
20260506124544 70 165 5.0 12.0 0.00 0.29 0.14 64 1010.3
20260506124026 70 159 8.0 12.0 0.00 0.29 0.14 69 1010.4
20260506123523 70 111 3.0 7.0 0.00 0.29 0.14 74 1010.4
20260506123043 69 131 1.0 7.0 0.00 0.29 0.14 75 1010.4
20260506122526 68 120 3.0 9.0 0.00 0.29 0.14 77 1010.3
20260506122026 68 159 3.0 10.0 0.00 0.29 0.14 80 1010.4
20260506121542 67 155 6.0 10.0 0.00 0.29 0.14 80 1010.4
20260506121025 66 103 6.0 11.0 0.00 0.29 0.14 81 1010.4
20260506120530 67 103 7.0 11.0 0.00 0.29 0.14 80 1010.4
20260506120042 67 113 5.0 11.0 0.00 0.29 0.14 81 1010.5
20260506115529 67 112 5.0 12.0 0.00 0.29 0.14 81 1010.6
20260506115022 67 88 6.0 12.0 0.00 0.29 0.14 79 1010.4
20260506114544 67 100 6.0 12.0 0.00 0.29 0.14 78 1010.5
20260506114023 67 118 9.0 12.0 0.00 0.29 0.14 77 1010.5
20260506113528 67 116 7.0 12.0 0.00 0.29 0.14 76 1010.6
20260506113044 68 105 4.0 9.0 0.00 0.29 0.14 75 1010.6
20260506112526 68 103 4.0 9.0 0.00 0.29 0.14 73 1010.7
20260506112026 69 82 4.0 8.0 0.00 0.29 0.14 70 1010.7
20260506111545 70 91 0.0 6.0 0.00 0.29 0.14 65 1010.7
20260506111026 70 0 0.0 0.0 0.00 0.29 0.14 62 1010.6
20260506110527 70 0 0.0 0.0 0.00 0.29 0.14 63 1010.7
20260506110040 70 0 0.0 2.0 0.00 0.29 0.14 65 1010.7
20260506105527 70 0 0.0 4.0 0.00 0.29 0.14 64 1010.7
20260506105030 70 0 2.0 4.0 0.00 0.29 0.14 64 1010.8
20260506104541 70 124 1.0 4.0 0.00 0.29 0.14 63 1010.9
20260506104026 69 124 1.0 4.0 0.00 0.29 0.14 63 1010.9
20260506103527 69 108 2.0 6.0 0.00 0.29 0.14 65 1010.9
20260506103048 69 105 2.0 7.0 0.00 0.29 0.14 65 1010.9
20260506102526 69 104 2.0 7.0 0.00 0.29 0.14 64 1011.0
20260506102023 69 138 3.0 7.0 0.00 0.29 0.14 63 1011.1
20260506101535 69 161 3.0 7.0 0.00 0.29 0.14 63 1011.0
20260506101029 69 163 4.0 7.0 0.00 0.29 0.14 62 1011.1
20260506100526 70 155 3.0 9.0 0.00 0.29 0.14 62 1011.1
20260506100041 70 138 4.0 10.0 0.00 0.29 0.14 61 1011.0
20260506095526 70 139 5.0 10.0 0.00 0.29 0.14 61 1011.1
20260506095027 70 136 4.0 11.0 0.00 0.29 0.14 61 1011.1
20260506094542 70 188 3.0 11.0 0.00 0.29 0.14 62 1011.1
20260506094026 70 203 6.0 10.0 0.00 0.29 0.14 62 1011.1
20260506093528 69 135 2.0 12.0 0.00 0.29 0.14 64 1011.2
20260506093042 69 0 2.0 12.0 0.00 0.29 0.14 66 1011.1
20260506092530 68 123 4.0 10.0 0.00 0.29 0.14 67 1011.2
20260506092026 68 161 5.0 10.0 0.00 0.29 0.14 66 1011.2
20260506091550 68 136 3.0 7.0 0.00 0.29 0.14 69 1011.2
20260506091027 67 83 3.0 7.0 0.00 0.29 0.14 70 1011.1
20260506090526 67 90 3.0 7.0 0.00 0.29 0.14 72 1011.2
20260506090040 67 134 2.0 4.0 0.00 0.29 0.14 72 1011.2
20260506085528 67 137 0.0 5.0 0.00 0.29 0.14 71 1011.3
20260506085026 67 137 1.0 8.0 0.00 0.29 0.14 70 1011.2
20260506084548 66 135 2.0 8.0 0.00 0.29 0.14 71 1011.0
20260506084026 66 131 3.0 8.0 0.00 0.29 0.14 71 1011.0
20260506083524 66 169 3.0 7.0 0.00 0.29 0.14 71 1010.8
20260506083044 66 165 3.0 8.0 0.00 0.29 0.14 74 1010.9
20260506082525 65 148 4.0 8.0 0.00 0.29 0.14 76 1010.9
20260506082026 65 159 3.0 10.0 0.00 0.29 0.14 79 1010.9
20260506081541 64 146 4.0 10.0 0.00 0.29 0.14 82 1010.9
20260506081029 64 153 4.0 8.0 0.00 0.29 0.14 84 1010.7
20260506080523 63 161 2.0 7.0 0.00 0.29 0.14 87 1010.9
20260506073528 61 0 1.0 7.0 0.00 0.33 0.14 94 1010.9
20260506073043 60 117 4.0 7.0 0.00 0.33 0.14 94 1010.7
20260506072523 60 154 3.0 7.0 0.00 0.33 0.14 94 1010.7
20260506072023 60 101 2.0 4.0 0.00 0.33 0.14 94 1011.1
20260506071544 60 94 2.0 4.0 0.00 0.33 0.14 94 1011.0
20260506071027 60 94 2.0 6.0 0.00 0.33 0.14 94 1011.1
20260506070528 60 90 3.0 6.0 0.00 0.33 0.14 95 1011.0
20260506062027 59 126 2.0 5.0 0.00 0.37 0.14 94 1011.3
20260506061544 59 126 2.0 5.0 0.00 0.37 0.14 94 1011.4
20260506061027 59 170 3.0 5.0 0.00 0.37 0.14 94 1011.3
20260506060524 59 171 1.0 4.0 0.00 0.37 0.14 94 1011.4